Lanai City, HI

12:38 AM HST on December 14, 2017 (GMT -1000)
Lanai City

Weather History for PHNY - September, 2012

Change the Weather History Date:

Tuesday, September 25, 2012

  Actual Average Record
Temperature  
Mean Temperature 74 °F -  
Max Temperature 81 °F 81 °F 86 °F (2001)
Min Temperature 66 °F 65 °F 59 °F (2011)
Cooling Degree Days 10    
Growing Degree Days 24 (Base 50)    
Moisture  
Dew Point 64 °F    
Average Humidity 74    
Maximum Humidity 90    
Minimum Humidity 56    
Precipitation  
Precipitation 0.00 in - - ()
Sea Level Pressure  
Sea Level Pressure 30.03 in    
Wind  
Wind Speed 13 mph (NE)    
Max Wind Speed 25 mph    
Max Gust Speed -    
Visibility 10 miles    
Events      
Averages and records for this station are not official NWS values.
T = Trace of Precipitation, MM = Missing Value Source: NWS Daily Summary

Daily Weather History Graph

Daily Weather History Graph

Search for Another Location

Airport or City:

Trip Planner

Search our weather history database for the weather conditions in past years. The results will help you decide how hot, cold, wet, or windy it might be!

Date:

Astronomy

Sep. 25, 2012 Rise Set
Actual Time 6:17 AM HST 6:20 PM HST
Civil Twilight 5:55 AM HST 6:42 PM HST
Nautical Twilight 5:29 AM HST 7:08 PM HST
Astronomical Twilight 5:03 AM HST 7:34 PM HST
Moon 3:27 PM HST (9/25) 2:20 AM HST (9/25)
Length of Visible Light 12h 47m
Length of Day
12h 03m
Waxing Gibbous, 82% of the Moon is Illuminated
Sep 25
Waxing Gibbous
Sep 29
Full
Oct 7
Last Quarter
Oct 15
New
Oct 21
First Quarter

Hourly Weather History & Observations

Time (HST) Temp. Heat Index Dew Point Humidity Pressure Visibility Wind Dir Wind Speed Gust Speed Precip Events Conditions
12:56 AM 70.0 °F - 64.9 °F 84% 30.02 in - NNE 12.7 mph - N/A   Clear
1:56 AM 68.9 °F - 63.9 °F 84% 30.00 in 10.0 mi NE 17.3 mph - N/A   Clear
2:56 AM 68.9 °F - 63.9 °F 84% 29.98 in 10.0 mi ENE 10.4 mph - N/A   Partly Cloudy
3:56 AM 68.9 °F - 63.9 °F 84% 29.98 in 10.0 mi ENE 11.5 mph - N/A   Partly Cloudy
4:56 AM 69.8 °F - 64.4 °F 83% 30.04 in 10.0 mi Calm Calm - N/A   Partly Cloudy
5:56 AM 68.9 °F - 63.9 °F 84% 30.01 in 10.0 mi NE 8.1 mph - N/A   Mostly Cloudy
6:56 AM 68.9 °F - 64.9 °F 87% 30.02 in 10.0 mi NE 9.2 mph - N/A   Clear
7:56 AM 73.9 °F - 64.9 °F 73% 30.02 in 10.0 mi NNE 17.3 mph - N/A   Clear
9:48 AM 78.8 °F - 64.4 °F 61% 30.10 in 10.0 mi Variable 3.5 mph - N/A   Mostly Cloudy
9:56 AM 77.0 °F - 63.9 °F 64% 30.04 in 10.0 mi NNE 13.8 mph - N/A   Mostly Cloudy
10:56 AM 78.8 °F - 64.4 °F 61% 30.09 in 10.0 mi Variable 4.6 mph - N/A   Overcast
11:40 AM 78.8 °F - 64.4 °F 61% 30.08 in 10.0 mi NE 18.4 mph - N/A   Mostly Cloudy
11:56 AM 77.9 °F - 64.9 °F 64% 30.01 in 10.0 mi NNE 16.1 mph - N/A   Mostly Cloudy
12:56 PM 81.9 °F 83.5 °F 64.9 °F 56% 29.99 in 10.0 mi NE 21.9 mph - N/A   Partly Cloudy
1:56 PM 81.9 °F 83.5 °F 64.9 °F 56% 29.97 in 10.0 mi NE 18.4 mph - N/A   Clear
2:56 PM 81.0 °F 82.7 °F 64.9 °F 58% 29.96 in 10.0 mi NE 23.0 mph - N/A   Clear
3:56 PM 77.9 °F - 63.0 °F 60% 29.97 in 10.0 mi NE 24.2 mph - N/A   Clear
4:56 PM 77.0 °F - 64.9 °F 66% 29.99 in 10.0 mi NE 25.3 mph - N/A   Clear
5:56 PM 72.9 °F - 63.9 °F 73% 30.01 in 10.0 mi NE 19.6 mph - N/A   Clear
6:56 PM 70.9 °F - 63.9 °F 78% 30.03 in 10.0 mi ENE 11.5 mph - N/A   Clear
7:56 PM 70.0 °F - 63.9 °F 81% 30.04 in 10.0 mi NNE 17.3 mph - N/A   Clear
8:56 PM 70.0 °F - 63.9 °F 81% 30.06 in 10.0 mi NE 10.4 mph - N/A   Clear
9:56 PM 70.0 °F - 63.9 °F 81% 30.07 in 10.0 mi Calm Calm - N/A   Mostly Cloudy
10:27 PM 69.8 °F - 64.4 °F 83% 30.13 in 10.0 mi NNE 10.4 mph - N/A   Scattered Clouds
10:56 PM 68.9 °F - 64.9 °F 87% 30.06 in 10.0 mi NE 6.9 mph - N/A   Partly Cloudy
11:56 PM 66.9 °F - 63.9 °F 90% 30.05 in 10.0 mi NNE 8.1 mph - N/A   Clear